Lid_Strength_Index
2 2 2 2 2 2 1 1 2 3 3 3 3 4 4 4 4 8 11 8 6 2 2 6 8 10 9 11 11 13 16 18 17 16 14 14 14 13 12 12 8 6 7 6 3
2 2 2 2 1 2 1 1 1 1 2 2 3 3 3 3 8 11 7 4 3 3 7 8 10 10 11 12 13 15 17 16 15 15 14 13 13 14 12 12 9 8 7 4 4
2 2 2 2 2 1 1 1 1 1 1 1 2 3 3 5 12 12 4 4 2 3 7 7 8 10 12 13 13 15 17 16 14 13 13 14 13 13 14 13 12 9 7 5 5
1 1 2 2 2 1 1 1 1 2 1 1 2 2 3 8 16 8 4 3 2 5 8 9 9 12 13 14 13 16 14 15 14 13 13 14 13 13 14 12 10 10 6 5 5
2 2 2 1 1 1 1 1 1 1 1 0 1 1 5 11 11 7 4 5 3 5 9 10 10 12 14 14 14 15 14 13 13 13 14 13 14 14 13 12 12 6 5 5 5
1 1 2 2 2 1 1 1 1 1 0 0 0 0 6 11 5 5 6 6 5 5 8 9 10 9 13 14 14 14 14 13 13 13 14 15 15 14 13 12 12 11 6 5 5
2 2 2 2 2 2 1 1 0 0 0 1 0 2 6 8 5 6 5 7 6 5 6 6 8 10 11 12 11 12 14 13 13 13 13 13 15 16 13 13 12 12 9 5 5
2 2 2 2 2 1 1 1 1 1 0 1 1 3 8 4 3 6 6 6 6 6 5 5 5 9 10 10 12 14 15 18 15 13 13 13 17 15 13 13 13 12 12 8 6
3 3 3 2 2 2 2 1 1 1 1 1 5 6 10 4 5 4 5 7 7 7 6 4 5 9 10 14 16 16 20 19 17 13 13 14 18 13 12 14 13 13 13 13 12
3 3 3 3 2 2 2 1 1 2 3 3 4 10 9 9 5 5 5 6 8 8 9 9 8 12 14 13 19 19 18 18 17 14 13 15 16 14 13 14 14 14 14 14 13
3 3 3 3 2 2 3 5 7 8 6 10 11 11 10 7 5 6 6 7 7 9 14 11 13 15 14 12 13 15 15 17 17 13 14 14 15 15 13 13 14 14 14 14 13
3 3 3 3 3 2 4 7 7 6 10 7 8 9 8 7 9 7 6 8 9 12 11 12 14 13 12 12 12 14 15 16 15 13 14 15 16 15 14 13 12 12 13 13 13
2 2 2 2 2 4 6 7 3 4 11 10 8 9 9 7 10 9 7 9 10 12 12 15 14 11 12 14 14 14 14 16 16 15 14 15 16 17 15 14 13 13 12 11 12
2 2 2 2 5 6 7 4 3 4 14 14 10 9 8 7 11 7 6 8 10 13 12 12 11 14 14 14 13 16 13 14 14 16 19 16 20 18 17 15 14 13 13 12 11
2 2 2 2 6 8 6 3 3 6 21 13 11 7 8 9 10 9 5 7 11 12 11 14 14 13 15 14 12 15 12 13 13 15 17 17 20 19 16 16 15 14 13 12 11
1 1 1 4 5 5 4 4 5 15 22 14 10 11 11 10 10 9 8 6 7 10 11 12 11 12 12 12 11 12 14 14 15 15 18 17 18 19 17 16 15 14 13 12 12
1 1 1 4 7 4 4 6 15 19 15 17 12 10 10 11 11 10 10 11 13 15 15 13 14 13 11 14 12 14 16 20 21 20 22 18 19 17 18 16 15 14 13 14 13
-0 -0 1 3 3 3 4 10 18 18 17 13 11 11 14 11 11 10 11 13 10 11 15 16 18 13 12 13 14 13 14 20 25 23 22 17 20 18 15 12 13 13 13 12 12
-1 3 5 4 2 2 7 15 18 18 13 14 12 13 14 11 12 11 12 13 11 10 15 16 16 12 12 12 11 14 15 14 17 24 21 19 18 15 14 14 15 14 14 14 12
2 4 4 2 1 3 9 13 16 11 10 14 16 13 16 14 13 13 13 10 11 9 9 12 16 12 11 10 10 12 11 16 16 25 24 21 19 18 18 16 14 15 14 14 13
3 7 5 1 2 7 13 15 15 9 8 13 15 16 14 15 13 14 13 11 9 10 9 11 13 15 11 13 14 13 14 13 14 16 20 22 21 17 15 15 15 14 14 13 13
6 10 6 2 9 14 13 17 11 10 7 10 11 12 13 13 14 14 14 11 8 8 12 10 13 16 15 11 9 10 12 13 17 18 16 17 19 16 16 16 15 15 13 13 14
7 7 3 4 13 13 19 16 12 12 11 10 12 11 9 12 14 12 12 8 9 9 11 10 14 18 17 14 12 13 11 11 12 14 16 18 17 14 15 15 15 14 14 14 15
9 12 8 7 14 12 18 18 16 9 9 9 10 9 12 12 11 15 13 10 9 9 7 8 12 15 17 15 14 15 13 12 12 16 16 15 15 16 16 15 15 14 14 14 15
7 11 10 12 11 17 12 15 16 16 10 8 12 10 11 13 13 14 14 11 9 8 9 10 15 13 15 14 13 13 13 13 14 13 16 14 14 13 14 14 13 13 14 15 16
11 13 13 14 10 11 11 15 14 12 11 11 12 11 10 13 12 16 13 12 13 11 11 11 15 16 18 14 13 14 13 12 12 12 12 12 13 10 13 13 14 13 13 14 15
8 11 8 11 11 12 13 12 12 9 9 8 9 10 11 10 9 9 10 11 11 13 16 14 18 21 19 17 15 18 14 13 13 11 11 14 11 13 14 12 12 13 12 13 14